El Paso, TX

9:25 AM MDT on June 26, 2017 (GMT -0600)
El Paso International

Weather History for KELP - July, 2013

Change the Weather History Date:

Wednesday, July 31, 2013

  Actual Average Record
Temperature  
Mean Temperature 86 °F 82 °F  
Max Temperature 98 °F 93 °F 104 °F (1972)
Min Temperature 73 °F 71 °F 60 °F (1925)
Degree Days  
Heating Degree Days 0 0  
Month to date heating degree days 0 0  
Since 1 June heating degree days 0 0  
Since 1 July heating degree days 0 0  
Cooling Degree Days 21 17  
Month to date cooling degree days 545 552  
Year to date cooling degree days 1716 1431  
Since 1 June cooling degree days 1208 1054  
Growing Degree Days 36 (Base 50)    
Moisture  
Dew Point 58 °F    
Average Humidity 48    
Maximum Humidity 73    
Minimum Humidity 22    
Precipitation  
Precipitation T in 0.07 in 0.68 in (2006)
Month to date precipitation 3.13 1.55  
Year to date precipitation 4.18 4.31  
Snow  
Snow T in - - ()
Month to date snowfall T  
Since 1 June snowfall T  
Since 1 July snowfall T  
Snow Depth 0.00 in    
Sea Level Pressure  
Sea Level Pressure 29.94 in    
Wind  
Wind Speed 4 mph (SE)    
Max Wind Speed 40 mph    
Max Gust Speed 46 mph    
Visibility 10 miles    
Events Rain , Thunderstorm    
T = Trace of Precipitation, MM = Missing Value Source: NWS Daily Summary

Daily Weather History Graph

Daily Weather History Graph

Search for Another Location

Airport or City:

Trip Planner

Search our weather history database for the weather conditions in past years. The results will help you decide how hot, cold, wet, or windy it might be!

Date:

Astronomy

Jul. 31, 2013 Rise Set
Actual Time 6:20 AM MDT 8:02 PM MDT
Civil Twilight 5:54 AM MDT 8:29 PM MDT
Nautical Twilight 5:22 AM MDT 9:01 PM MDT
Astronomical Twilight 4:48 AM MDT 9:34 PM MDT
Moon 1:17 AM MDT (7/31) 3:20 PM MDT (7/31)
Length of Visible Light 14h 34m
Length of Day
13h 41m
Waning Crescent, 31% of the Moon is Illuminated
Jul 31
Waning Crescent
Aug 6
New
Aug 14
First Quarter
Aug 20
Full
Aug 28
Last Quarter

Hourly Weather History & Observations

Time (MDT) Temp. Heat Index Dew Point Humidity Pressure Visibility Wind Dir Wind Speed Gust Speed Precip Events Conditions
12:51 AM 78.1 °F - 61.0 °F 56% 29.94 in 10.0 mi SE 5.8 mph - N/A   Mostly Cloudy
1:51 AM 78.1 °F - 61.0 °F 56% 29.93 in 10.0 mi NNE 4.6 mph - N/A   Mostly Cloudy
2:51 AM 77.0 °F - 64.0 °F 64% 29.92 in 10.0 mi NNE 3.5 mph - N/A   Mostly Cloudy
3:51 AM 73.9 °F - 64.0 °F 71% 29.92 in 10.0 mi South 3.5 mph - N/A   Scattered Clouds
4:51 AM 75.0 °F - 61.0 °F 62% 29.95 in 10.0 mi SE 3.5 mph - N/A   Scattered Clouds
5:51 AM 75.0 °F - 60.1 °F 60% 29.98 in 10.0 mi South 3.5 mph - N/A   Mostly Cloudy
6:51 AM 73.9 °F - 60.1 °F 62% 29.98 in 10.0 mi SSE 5.8 mph - N/A   Mostly Cloudy
7:51 AM 77.0 °F - 63.0 °F 62% 29.98 in 10.0 mi ENE 4.6 mph - N/A   Mostly Cloudy
8:51 AM 81.0 °F 81.6 °F 60.1 °F 49% 29.99 in 10.0 mi Calm Calm - N/A   Mostly Cloudy
9:51 AM 84.0 °F 84.0 °F 60.1 °F 44% 29.99 in 10.0 mi NNE 3.5 mph - N/A   Mostly Cloudy
10:51 AM 89.1 °F 88.0 °F 57.9 °F 35% 29.98 in 10.0 mi Calm Calm - N/A   Mostly Cloudy
11:51 AM 91.0 °F 88.9 °F 55.0 °F 29% 29.97 in 10.0 mi Calm Calm - N/A   Mostly Cloudy
12:51 PM 91.0 °F 89.2 °F 55.9 °F 30% 29.96 in 10.0 mi Calm Calm - N/A   Mostly Cloudy
1:51 PM 93.0 °F 91.4 °F 55.9 °F 29% 29.93 in 10.0 mi Calm Calm - N/A   Scattered Clouds
2:51 PM 95.0 °F 92.7 °F 54.0 °F 25% 29.89 in 10.0 mi Variable 5.8 mph - N/A   Scattered Clouds
3:51 PM 97.0 °F 94.6 °F 54.0 °F 23% 29.86 in 10.0 mi NE 8.1 mph - N/A   Scattered Clouds
4:51 PM 96.1 °F - 52.0 °F 22% 29.84 in 10.0 mi NNE 6.9 mph - N/A   Scattered Clouds
5:13 PM 93.2 °F 90.8 °F 53.6 °F 26% 30.08 in 10.0 mi Calm Calm - 0.00 in Rain , Thunderstorm Light Thunderstorms and Rain
5:26 PM 84.2 °F 83.8 °F 59.0 °F 42% 30.10 in 10.0 mi South 40.3 mph 46.0 mph 0.00 in Rain , Thunderstorm Heavy Thunderstorms and Rain
5:35 PM 84.2 °F 83.5 °F 57.2 °F 40% 30.09 in 10.0 mi SW 21.9 mph 46.0 mph 0.00 in Rain , Thunderstorm Light Thunderstorms and Rain
5:51 PM 89.1 °F 86.7 °F 53.1 °F 29% 29.85 in 10.0 mi SW 11.5 mph 24.2 mph 0.00 in Rain Light Rain
6:51 PM 90.0 °F 89.7 °F 60.1 °F 37% 29.86 in 10.0 mi SSE 11.5 mph 17.3 mph 0.00 in   Mostly Cloudy
7:51 PM 89.1 °F 88.0 °F 57.9 °F 35% 29.86 in 10.0 mi SE 8.1 mph - N/A   Mostly Cloudy
8:51 PM 87.1 °F 85.7 °F 55.9 °F 35% 29.87 in 10.0 mi SE 6.9 mph - N/A   Mostly Cloudy
9:51 PM 86.0 °F 84.9 °F 57.0 °F 37% 29.90 in 10.0 mi East 10.4 mph - N/A   Mostly Cloudy
10:51 PM 84.0 °F 83.5 °F 57.9 °F 41% 29.90 in 10.0 mi Calm Calm - N/A   Mostly Cloudy
11:51 PM 82.0 °F 82.1 °F 59.0 °F 45% 29.91 in 10.0 mi SW 4.6 mph - N/A   Mostly Cloudy